owner,sensor,date,latitude,longitude,vertical_datum,wind_speed,wind_to_direction,wind_speed_of_gust,qcFlag 
DISL,ioos:station:DISL:MHPA:1,2008-01-01T06:30:00Z,30.6671,-87.9365,8.5,0.06,112.9,-9999.0,'1111122,1111122,1111122' 
DISL,ioos:station:DISL:MHPA:1,2008-01-01T07:00:00Z,30.6671,-87.9365,8.5,0.26,5.394,-9999.0,'1111122,1111122,1111122' 
DISL,ioos:station:DISL:MHPA:1,2008-01-01T07:30:00Z,30.6671,-87.9365,8.5,2.76,353.5,-9999.0,'1111122,1111122,1111122' 
DISL,ioos:station:DISL:MHPA:1,2008-01-01T08:00:00Z,30.6671,-87.9365,8.5,3.18,341.5,-9999.0,'1111122,1111122,1111122' 
DISL,ioos:station:DISL:MHPA:1,2008-01-01T08:30:00Z,30.6671,-87.9365,8.5,4.29,333.8,-9999.0,'1111122,1111122,1111122' 
DISL,ioos:station:DISL:MHPA:1,2008-01-01T09:00:00Z,30.6671,-87.9365,8.5,3.27,342.0,-9999.0,'1111122,1111122,1111122' 
DISL,ioos:station:DISL:MHPA:1,2008-01-01T09:30:00Z,30.6671,-87.9365,8.5,4.8,344.1,-9999.0,'1111122,1111122,1111122' 
DISL,ioos:station:DISL:MHPA:1,2008-01-01T10:00:00Z,30.6671,-87.9365,8.5,4.76,344.3,-9999.0,'1111122,1111122,1111122' 
DISL,ioos:station:DISL:MHPA:1,2008-01-01T10:30:00Z,30.6671,-87.9365,8.5,5.1,337.5,-9999.0,'1111122,1111122,1111122' 
DISL,ioos:station:DISL:MHPA:1,2008-01-01T11:00:00Z,30.6671,-87.9365,8.5,5.11,345.9,-9999.0,'1111122,1111122,1111122' 
DISL,ioos:station:DISL:MHPA:1,2008-01-01T11:30:00Z,30.6671,-87.9365,8.5,5.07,343.1,-9999.0,'1111122,1111122,1111122' 
DISL,ioos:station:DISL:MHPA:1,2008-01-01T12:00:00Z,30.6671,-87.9365,8.5,6.43,349.4,-9999.0,'1111122,1111122,1111122' 
DISL,ioos:station:DISL:MHPA:1,2008-01-01T12:30:00Z,30.6671,-87.9365,8.5,5.39,349.5,-9999.0,'1111122,1111122,1111122' 
DISL,ioos:station:DISL:MHPA:1,2008-01-01T13:00:00Z,30.6671,-87.9365,8.5,4.87,352.2,-9999.0,'1111122,1111122,1111122' 
DISL,ioos:station:DISL:MHPA:1,2008-01-01T13:30:00Z,30.6671,-87.9365,8.5,4.04,348.8,-9999.0,'1111122,1111122,1111122' 
DISL,ioos:station:DISL:MHPA:1,2008-01-01T14:00:00Z,30.6671,-87.9365,8.5,6.23,345.5,-9999.0,'1111122,1111122,1111122' 
DISL,ioos:station:DISL:MHPA:1,2008-01-01T14:30:00Z,30.6671,-87.9365,8.5,7.07,347.4,-9999.0,'1111122,1111122,1111122' 
DISL,ioos:station:DISL:MHPA:1,2008-01-01T15:00:00Z,30.6671,-87.9365,8.5,8.57,342.8,-9999.0,'1111122,1111122,1111122' 
DISL,ioos:station:DISL:MHPA:1,2008-01-01T15:30:00Z,30.6671,-87.9365,8.5,8.52,343.0,-9999.0,'1111122,1111122,1111122' 
DISL,ioos:station:DISL:MHPA:1,2008-01-01T16:00:00Z,30.6671,-87.9365,8.5,8.34,336.1,-9999.0,'1111122,1111122,1111122' 
DISL,ioos:station:DISL:MHPA:1,2008-01-01T16:30:00Z,30.6671,-87.9365,8.5,7.5,339.8,-9999.0,'1111122,1111122,1111122' 
DISL,ioos:station:DISL:MHPA:1,2008-01-01T17:00:00Z,30.6671,-87.9365,8.5,7.38,354.1,-9999.0,'1111122,1111122,1111122' 
DISL,ioos:station:DISL:MHPA:1,2008-01-01T17:30:00Z,30.6671,-87.9365,8.5,7.66,334.8,-9999.0,'1111122,1111122,1111122' 
DISL,ioos:station:DISL:MHPA:1,2008-01-01T18:00:00Z,30.6671,-87.9365,8.5,7.86,331.8,-9999.0,'1111122,1111122,1111122' 
DISL,ioos:station:DISL:MHPA:1,2008-01-01T18:30:00Z,30.6671,-87.9365,8.5,7.33,339.6,-9999.0,'1111122,1111122,1111122' 
DISL,ioos:station:DISL:MHPA:1,2008-01-01T19:00:00Z,30.6671,-87.9365,8.5,6.95,337.7,-9999.0,'1111122,1111122,1111122' 
DISL,ioos:station:DISL:MHPA:1,2008-01-01T19:30:00Z,30.6671,-87.9365,8.5,6.58,335.6,-9999.0,'1111122,1111122,1111122' 
DISL,ioos:station:DISL:MHPA:1,2008-01-01T20:00:00Z,30.6671,-87.9365,8.5,7.71,345.7,-9999.0,'1111122,1111122,1111122' 
DISL,ioos:station:DISL:MHPA:1,2008-01-01T20:30:00Z,30.6671,-87.9365,8.5,6.49,351.6,-9999.0,'1111122,1111122,1111122' 
DISL,ioos:station:DISL:MHPA:1,2008-01-01T21:00:00Z,30.6671,-87.9365,8.5,8.47,328.9,-9999.0,'1111122,1111122,1111122' 
DISL,ioos:station:DISL:MHPA:1,2008-01-01T21:30:00Z,30.6671,-87.9365,8.5,6.13,339.1,-9999.0,'1111122,1111122,1111122' 
DISL,ioos:station:DISL:MHPA:1,2008-01-01T22:00:00Z,30.6671,-87.9365,8.5,6.48,342.9,-9999.0,'1111122,1111122,1111122' 
DISL,ioos:station:DISL:MHPA:1,2008-01-01T22:30:00Z,30.6671,-87.9365,8.5,5.45,334.8,-9999.0,'1111122,1111122,1111122' 
DISL,ioos:station:DISL:MHPA:1,2008-01-01T23:00:00Z,30.6671,-87.9365,8.5,5.61,332.1,-9999.0,'1111122,1111122,1111122' 
DISL,ioos:station:DISL:MHPA:1,2008-01-01T23:30:00Z,30.6671,-87.9365,8.5,3.81,337.3,-9999.0,'1111122,1111122,1111122' 
DISL,ioos:station:DISL:MHPA:1,2008-01-02T00:00:00Z,30.6671,-87.9365,8.5,2.58,341.2,-9999.0,'1111122,1111122,1111122' 
DISL,ioos:station:DISL:MHPA:1,2008-01-02T00:30:00Z,30.6671,-87.9365,8.5,2.32,332.2,-9999.0,'1111122,1111122,1111122' 
DISL,ioos:station:DISL:MHPA:1,2008-01-02T01:00:00Z,30.6671,-87.9365,8.5,3.0,315.1,-9999.0,'1111122,1111122,1111122' 
DISL,ioos:station:DISL:MHPA:1,2008-01-02T01:30:00Z,30.6671,-87.9365,8.5,5.24,321.9,-9999.0,'1111122,1111122,1111122' 
DISL,ioos:station:DISL:MHPA:1,2008-01-02T02:00:00Z,30.6671,-87.9365,8.5,5.42,316.3,-9999.0,'1111122,1111122,1111122' 
DISL,ioos:station:DISL:MHPA:1,2008-01-02T02:30:00Z,30.6671,-87.9365,8.5,5.75,327.4,-9999.0,'1111122,1111122,1111122' 
DISL,ioos:station:DISL:MHPA:1,2008-01-02T03:00:00Z,30.6671,-87.9365,8.5,4.22,323.2,-9999.0,'1111122,1111122,1111122' 
DISL,ioos:station:DISL:MHPA:1,2008-01-02T03:30:00Z,30.6671,-87.9365,8.5,3.19,329.5,-9999.0,'1111122,1111122,1111122' 
DISL,ioos:station:DISL:MHPA:1,2008-01-02T04:00:00Z,30.6671,-87.9365,8.5,3.35,330.6,-9999.0,'1111122,1111122,1111122' 
DISL,ioos:station:DISL:MHPA:1,2008-01-02T04:30:00Z,30.6671,-87.9365,8.5,4.32,338.4,-9999.0,'1111122,1111122,1111122' 
DISL,ioos:station:DISL:MHPA:1,2008-01-02T05:00:00Z,30.6671,-87.9365,8.5,4.32,339.7,-9999.0,'1111122,1111122,1111122' 
DISL,ioos:station:DISL:MHPA:1,2008-01-02T05:30:00Z,30.6671,-87.9365,8.5,5.74,334.5,-9999.0,'1111122,1111122,1111122' 
DISL,ioos:station:DISL:MHPA:1,2008-01-02T06:00:00Z,30.6671,-87.9365,8.5,6.29,332.3,-9999.0,'1111122,1111122,1111122' 
DISL,ioos:station:DISL:MHPA:1,2008-01-02T06:30:00Z,30.6671,-87.9365,8.5,5.02,328.9,-9999.0,'1111122,1111122,1111122' 
DISL,ioos:station:DISL:MHPA:1,2008-01-02T07:00:00Z,30.6671,-87.9365,8.5,4.61,321.5,-9999.0,'1111122,1111122,1111122' 
DISL,ioos:station:DISL:MHPA:1,2008-01-02T07:30:00Z,30.6671,-87.9365,8.5,5.17,321.1,-9999.0,'1111122,1111122,1111122' 
DISL,ioos:station:DISL:MHPA:1,2008-01-02T08:00:00Z,30.6671,-87.9365,8.5,5.13,324.5,-9999.0,'1111122,1111122,1111122' 
DISL,ioos:station:DISL:MHPA:1,2008-01-02T08:30:00Z,30.6671,-87.9365,8.5,4.88,324.9,-9999.0,'1111122,1111122,1111122' 
DISL,ioos:station:DISL:MHPA:1,2008-01-02T09:00:00Z,30.6671,-87.9365,8.5,4.84,324.4,-9999.0,'1111122,1111122,1111122' 
DISL,ioos:station:DISL:MHPA:1,2008-01-02T09:30:00Z,30.6671,-87.9365,8.5,5.35,332.8,-9999.0,'1111122,1111122,1111122' 
DISL,ioos:station:DISL:MHPA:1,2008-01-02T10:00:00Z,30.6671,-87.9365,8.5,6.72,333.3,-9999.0,'1111122,1111122,1111122' 
DISL,ioos:station:DISL:MHPA:1,2008-01-02T10:30:00Z,30.6671,-87.9365,8.5,6.16,338.6,-9999.0,'1111122,1111122,1111122' 
DISL,ioos:station:DISL:MHPA:1,2008-01-02T11:00:00Z,30.6671,-87.9365,8.5,5.24,341.4,-9999.0,'1111122,1111122,1111122' 
DISL,ioos:station:DISL:MHPA:1,2008-01-02T11:30:00Z,30.6671,-87.9365,8.5,4.29,346.7,-9999.0,'1111122,1111122,1111122' 
DISL,ioos:station:DISL:MHPA:1,2008-01-02T12:00:00Z,30.6671,-87.9365,8.5,3.82,345.6,-9999.0,'1111122,1111122,1111122' 
DISL,ioos:station:DISL:MHPA:1,2008-01-02T12:30:00Z,30.6671,-87.9365,8.5,4.42,331.9,-9999.0,'1111122,1111122,1111122' 
DISL,ioos:station:DISL:MHPA:1,2008-01-02T13:00:00Z,30.6671,-87.9365,8.5,6.08,336.6,-9999.0,'1111122,1111122,1111122' 
DISL,ioos:station:DISL:MHPA:1,2008-01-02T13:30:00Z,30.6671,-87.9365,8.5,6.26,339.1,-9999.0,'1111122,1111122,1111122' 
DISL,ioos:station:DISL:MHPA:1,2008-01-02T14:30:00Z,30.6671,-87.9365,8.5,5.97,346.3,-9999.0,'1111122,1111122,1111122' 
DISL,ioos:station:DISL:MHPA:1,2008-01-02T15:00:00Z,30.6671,-87.9365,8.5,6.63,340.6,-9999.0,'1111122,1111122,1111122' 
DISL,ioos:station:DISL:MHPA:1,2008-01-02T15:30:00Z,30.6671,-87.9365,8.5,7.08,350.1,-9999.0,'1111122,1111122,1111122' 
DISL,ioos:station:DISL:MHPA:1,2008-01-02T16:00:00Z,30.6671,-87.9365,8.5,7.23,345.5,-9999.0,'1111122,1111122,1111122' 
DISL,ioos:station:DISL:MHPA:1,2008-01-02T16:30:00Z,30.6671,-87.9365,8.5,6.46,347.8,-9999.0,'1111122,1111122,1111122' 
DISL,ioos:station:DISL:MHPA:1,2008-01-02T17:00:00Z,30.6671,-87.9365,8.5,6.6,342.0,-9999.0,'1111122,1111122,1111122' 
DISL,ioos:station:DISL:MHPA:1,2008-01-02T17:30:00Z,30.6671,-87.9365,8.5,6.06,342.7,-9999.0,'1111122,1111122,1111122' 
DISL,ioos:station:DISL:MHPA:1,2008-01-02T18:00:00Z,30.6671,-87.9365,8.5,5.69,0.2,-9999.0,'1111122,1111122,1111122' 
DISL,ioos:station:DISL:MHPA:1,2008-01-02T18:30:00Z,30.6671,-87.9365,8.5,6.72,347.3,-9999.0,'1111122,1111122,1111122' 
DISL,ioos:station:DISL:MHPA:1,2008-01-02T19:00:00Z,30.6671,-87.9365,8.5,6.31,357.1,-9999.0,'1111122,1111122,1111122' 
DISL,ioos:station:DISL:MHPA:1,2008-01-02T19:30:00Z,30.6671,-87.9365,8.5,5.83,352.4,-9999.0,'1111122,1111122,1111122' 
DISL,ioos:station:DISL:MHPA:1,2008-01-02T20:00:00Z,30.6671,-87.9365,8.5,6.3,339.7,-9999.0,'1111122,1111122,1111122' 
DISL,ioos:station:DISL:MHPA:1,2008-01-02T20:30:00Z,30.6671,-87.9365,8.5,5.78,342.8,-9999.0,'1111122,1111122,1111122' 
DISL,ioos:station:DISL:MHPA:1,2008-01-02T21:00:00Z,30.6671,-87.9365,8.5,6.15,358.4,-9999.0,'1111122,1111122,1111122' 
DISL,ioos:station:DISL:MHPA:1,2008-01-02T21:30:00Z,30.6671,-87.9365,8.5,5.56,347.3,-9999.0,'1111122,1111122,1111122' 
DISL,ioos:station:DISL:MHPA:1,2008-01-02T22:00:00Z,30.6671,-87.9365,8.5,6.06,351.5,-9999.0,'1111122,1111122,1111122' 
DISL,ioos:station:DISL:MHPA:1,2008-01-02T22:30:00Z,30.6671,-87.9365,8.5,5.88,358.9,-9999.0,'1111122,1111122,1111122' 
DISL,ioos:station:DISL:MHPA:1,2008-01-02T23:00:00Z,30.6671,-87.9365,8.5,5.53,347.4,-9999.0,'1111122,1111122,1111122' 
DISL,ioos:station:DISL:MHPA:1,2008-01-02T23:30:00Z,30.6671,-87.9365,8.5,5.61,345.6,-9999.0,'1111122,1111122,1111122' 
DISL,ioos:station:DISL:MHPA:1,2008-01-03T00:00:00Z,30.6671,-87.9365,8.5,4.45,346.2,-9999.0,'1111122,1111122,1111122' 
DISL,ioos:station:DISL:MHPA:1,2008-01-03T00:30:00Z,30.6671,-87.9365,8.5,4.41,345.4,-9999.0,'1111122,1111122,1111122' 
DISL,ioos:station:DISL:MHPA:1,2008-01-03T01:00:00Z,30.6671,-87.9365,8.5,4.9,347.0,-9999.0,'1111122,1111122,1111122' 
DISL,ioos:station:DISL:MHPA:1,2008-01-03T01:30:00Z,30.6671,-87.9365,8.5,3.68,4.718,-9999.0,'1111122,1111122,1111122' 
DISL,ioos:station:DISL:MHPA:1,2008-01-03T02:00:00Z,30.6671,-87.9365,8.5,2.56,35.1,-9999.0,'1111122,1111122,1111122' 
DISL,ioos:station:DISL:MHPA:1,2008-01-03T02:30:00Z,30.6671,-87.9365,8.5,3.52,10.31,-9999.0,'1111122,1111122,1111122' 
DISL,ioos:station:DISL:MHPA:1,2008-01-03T03:00:00Z,30.6671,-87.9365,8.5,3.42,21.54,-9999.0,'1111122,1111122,1111122' 
DISL,ioos:station:DISL:MHPA:1,2008-01-03T03:30:00Z,30.6671,-87.9365,8.5,3.81,12.67,-9999.0,'1111122,1111122,1111122' 
DISL,ioos:station:DISL:MHPA:1,2008-01-03T04:00:00Z,30.6671,-87.9365,8.5,3.58,17.05,-9999.0,'1111122,1111122,1111122' 
DISL,ioos:station:DISL:MHPA:1,2008-01-03T04:30:00Z,30.6671,-87.9365,8.5,4.28,12.69,-9999.0,'1111122,1111122,1111122' 
DISL,ioos:station:DISL:MHPA:1,2008-01-03T05:00:00Z,30.6671,-87.9365,8.5,3.15,18.81,-9999.0,'1111122,1111122,1111122' 
DISL,ioos:station:DISL:MHPA:1,2008-01-03T05:30:00Z,30.6671,-87.9365,8.5,3.22,11.5,-9999.0,'1111122,1111122,1111122' 
DISL,ioos:station:DISL:MHPA:1,2008-01-03T06:00:00Z,30.6671,-87.9365,8.5,3.29,12.67,-9999.0,'1111122,1111122,1111122' 
DISL,ioos:station:DISL:MHPA:1,2008-01-03T06:30:00Z,30.6671,-87.9365,8.5,3.27,15.64,-9999.0,'1111122,1111122,1111122' 
DISL,ioos:station:DISL:MHPA:1,2008-01-03T07:00:00Z,30.6671,-87.9365,8.5,3.69,14.04,-9999.0,'1111122,1111122,1111122' 
DISL,ioos:station:DISL:MHPA:1,2008-01-03T07:30:00Z,30.6671,-87.9365,8.5,4.4,9.41,-9999.0,'1111122,1111122,1111122' 
DISL,ioos:station:DISL:MHPA:1,2008-01-03T08:00:00Z,30.6671,-87.9365,8.5,4.01,12.43,-9999.0,'1111122,1111122,1111122' 
DISL,ioos:station:DISL:MHPA:1,2008-01-03T08:30:00Z,30.6671,-87.9365,8.5,4.03,4.04,-9999.0,'1111122,1111122,1111122' 
DISL,ioos:station:DISL:MHPA:1,2008-01-03T09:00:00Z,30.6671,-87.9365,8.5,4.44,7.49,-9999.0,'1111122,1111122,1111122' 
DISL,ioos:station:DISL:MHPA:1,2008-01-03T09:30:00Z,30.6671,-87.9365,8.5,4.43,15.14,-9999.0,'1111122,1111122,1111122' 
DISL,ioos:station:DISL:MHPA:1,2008-01-03T10:00:00Z,30.6671,-87.9365,8.5,3.97,1.926,-9999.0,'1111122,1111122,1111122' 
DISL,ioos:station:DISL:MHPA:1,2008-01-03T10:30:00Z,30.6671,-87.9365,8.5,4.23,1.299,-9999.0,'1111122,1111122,1111122' 
DISL,ioos:station:DISL:MHPA:1,2008-01-03T11:00:00Z,30.6671,-87.9365,8.5,3.45,13.52,-9999.0,'1111122,1111122,1111122' 
DISL,ioos:station:DISL:MHPA:1,2008-01-03T11:30:00Z,30.6671,-87.9365,8.5,3.54,10.46,-9999.0,'1111122,1111122,1111122' 
DISL,ioos:station:DISL:MHPA:1,2008-01-03T12:00:00Z,30.6671,-87.9365,8.5,3.13,21.4,-9999.0,'1111122,1111122,1111122' 
DISL,ioos:station:DISL:MHPA:1,2008-01-03T12:30:00Z,30.6671,-87.9365,8.5,3.58,9.92,-9999.0,'1111122,1111122,1111122' 
DISL,ioos:station:DISL:MHPA:1,2008-01-03T13:00:00Z,30.6671,-87.9365,8.5,4.0,3.721,-9999.0,'1111122,1111122,1111122' 
DISL,ioos:station:DISL:MHPA:1,2008-01-03T13:30:00Z,30.6671,-87.9365,8.5,3.89,17.03,-9999.0,'1111122,1111122,1111122' 
DISL,ioos:station:DISL:MHPA:1,2008-01-03T14:00:00Z,30.6671,-87.9365,8.5,3.68,9.4,-9999.0,'1111122,1111122,1111122' 
DISL,ioos:station:DISL:MHPA:1,2008-01-03T14:30:00Z,30.6671,-87.9365,8.5,3.63,11.83,-9999.0,'1111122,1111122,1111122' 
DISL,ioos:station:DISL:MHPA:1,2008-01-03T15:00:00Z,30.6671,-87.9365,8.5,3.41,22.86,-9999.0,'1111122,1111122,1111122' 
DISL,ioos:station:DISL:MHPA:1,2008-01-03T15:30:00Z,30.6671,-87.9365,8.5,2.96,18.26,-9999.0,'1111122,1111122,1111122' 
DISL,ioos:station:DISL:MHPA:1,2008-01-03T16:00:00Z,30.6671,-87.9365,8.5,2.45,25.97,-9999.0,'1111122,1111122,1111122' 
DISL,ioos:station:DISL:MHPA:1,2008-01-03T16:30:00Z,30.6671,-87.9365,8.5,2.74,9.57,-9999.0,'1111122,1111122,1111122' 
DISL,ioos:station:DISL:MHPA:1,2008-01-03T17:00:00Z,30.6671,-87.9365,8.5,2.58,9.11,-9999.0,'1111122,1111122,1111122' 
DISL,ioos:station:DISL:MHPA:1,2008-01-03T17:30:00Z,30.6671,-87.9365,8.5,2.66,20.76,-9999.0,'1111122,1111122,1111122' 
DISL,ioos:station:DISL:MHPA:1,2008-01-03T18:00:00Z,30.6671,-87.9365,8.5,2.91,11.71,-9999.0,'1111122,1111122,1111122' 
DISL,ioos:station:DISL:MHPA:1,2008-01-03T18:30:00Z,30.6671,-87.9365,8.5,2.53,25.76,-9999.0,'1111122,1111122,1111122' 
DISL,ioos:station:DISL:MHPA:1,2008-01-03T19:00:00Z,30.6671,-87.9365,8.5,2.16,9.28,-9999.0,'1111122,1111122,1111122' 
DISL,ioos:station:DISL:MHPA:1,2008-01-03T19:30:00Z,30.6671,-87.9365,8.5,3.05,12.16,-9999.0,'1111122,1111122,1111122' 
DISL,ioos:station:DISL:MHPA:1,2008-01-03T20:00:00Z,30.6671,-87.9365,8.5,2.39,12.46,-9999.0,'1111122,1111122,1111122' 
DISL,ioos:station:DISL:MHPA:1,2008-01-03T20:30:00Z,30.6671,-87.9365,8.5,2.48,24.24,-9999.0,'1111122,1111122,1111122' 
DISL,ioos:station:DISL:MHPA:1,2008-01-03T21:00:00Z,30.6671,-87.9365,8.5,2.65,2.01,-9999.0,'1111122,1111122,1111122' 
DISL,ioos:station:DISL:MHPA:1,2008-01-03T21:30:00Z,30.6671,-87.9365,8.5,2.09,353.0,-9999.0,'1111122,1111122,1111122' 
DISL,ioos:station:DISL:MHPA:1,2008-01-03T22:00:00Z,30.6671,-87.9365,8.5,2.3,343.7,-9999.0,'1111122,1111122,1111122' 
DISL,ioos:station:DISL:MHPA:1,2008-01-03T22:30:00Z,30.6671,-87.9365,8.5,2.14,352.1,-9999.0,'1111122,1111122,1111122' 
DISL,ioos:station:DISL:MHPA:1,2008-01-03T23:00:00Z,30.6671,-87.9365,8.5,1.67,341.0,-9999.0,'1111122,1111122,1111122' 
DISL,ioos:station:DISL:MHPA:1,2008-01-03T23:30:00Z,30.6671,-87.9365,8.5,1.42,3.744,-9999.0,'1111122,1111122,1111122' 
DISL,ioos:station:DISL:MHPA:1,2008-01-04T00:00:00Z,30.6671,-87.9365,8.5,1.59,6.317,-9999.0,'1111122,1111122,1111122' 
DISL,ioos:station:DISL:MHPA:1,2008-01-04T00:30:00Z,30.6671,-87.9365,8.5,1.15,24.83,-9999.0,'1111122,1111122,1111122' 
DISL,ioos:station:DISL:MHPA:1,2008-01-04T01:00:00Z,30.6671,-87.9365,8.5,1.04,25.46,-9999.0,'1111122,1111122,1111122' 
DISL,ioos:station:DISL:MHPA:1,2008-01-04T01:30:00Z,30.6671,-87.9365,8.5,0.66,53.55,-9999.0,'1111122,1111122,1111122' 
DISL,ioos:station:DISL:MHPA:1,2008-01-04T02:00:00Z,30.6671,-87.9365,8.5,0.97,24.04,-9999.0,'1111122,1111122,1111122' 
DISL,ioos:station:DISL:MHPA:1,2008-01-04T02:30:00Z,30.6671,-87.9365,8.5,1.1,27.27,-9999.0,'1111122,1111122,1111122' 
DISL,ioos:station:DISL:MHPA:1,2008-01-04T03:00:00Z,30.6671,-87.9365,8.5,0.68,33.63,-9999.0,'1111122,1111122,1111122' 
DISL,ioos:station:DISL:MHPA:1,2008-01-04T03:30:00Z,30.6671,-87.9365,8.5,1.36,41.97,-9999.0,'1111122,1111122,1111122' 
DISL,ioos:station:DISL:MHPA:1,2008-01-04T04:00:00Z,30.6671,-87.9365,8.5,2.11,51.73,-9999.0,'1111122,1111122,1111122' 
DISL,ioos:station:DISL:MHPA:1,2008-01-04T04:30:00Z,30.6671,-87.9365,8.5,1.47,33.63,-9999.0,'1111122,1111122,1111122' 
DISL,ioos:station:DISL:MHPA:1,2008-01-04T05:00:00Z,30.6671,-87.9365,8.5,0.91,20.79,-9999.0,'1111122,1111122,1111122' 
DISL,ioos:station:DISL:MHPA:1,2008-01-04T05:30:00Z,30.6671,-87.9365,8.5,1.7,23.05,-9999.0,'1111122,1111122,1111122' 
DISL,ioos:station:DISL:MHPA:1,2008-01-04T06:00:00Z,30.6671,-87.9365,8.5,1.31,20.75,-9999.0,'1111122,1111122,1111122' 
DISL,ioos:station:DISL:MHPA:1,2008-01-04T06:30:00Z,30.6671,-87.9365,8.5,1.61,78.8,-9999.0,'1111122,1111122,1111122' 
DISL,ioos:station:DISL:MHPA:1,2008-01-04T07:00:00Z,30.6671,-87.9365,8.5,2.98,80.9,-9999.0,'1111122,1111122,1111122' 
DISL,ioos:station:DISL:MHPA:1,2008-01-04T07:30:00Z,30.6671,-87.9365,8.5,2.2,88.0,-9999.0,'1111122,1111122,1111122' 
DISL,ioos:station:DISL:MHPA:1,2008-01-04T08:00:00Z,30.6671,-87.9365,8.5,2.56,72.6,-9999.0,'1111122,1111122,1111122' 
DISL,ioos:station:DISL:MHPA:1,2008-01-04T08:30:00Z,30.6671,-87.9365,8.5,2.44,72.3,-9999.0,'1111122,1111122,1111122' 
DISL,ioos:station:DISL:MHPA:1,2008-01-04T09:00:00Z,30.6671,-87.9365,8.5,2.48,82.4,-9999.0,'1111122,1111122,1111122' 
DISL,ioos:station:DISL:MHPA:1,2008-01-04T09:30:00Z,30.6671,-87.9365,8.5,3.14,67.76,-9999.0,'1111122,1111122,1111122' 
DISL,ioos:station:DISL:MHPA:1,2008-01-04T10:00:00Z,30.6671,-87.9365,8.5,2.12,65.19,-9999.0,'1111122,1111122,1111122' 
DISL,ioos:station:DISL:MHPA:1,2008-01-04T10:30:00Z,30.6671,-87.9365,8.5,2.62,79.4,-9999.0,'1111122,1111122,1111122' 
DISL,ioos:station:DISL:MHPA:1,2008-01-04T11:00:00Z,30.6671,-87.9365,8.5,2.79,90.2,-9999.0,'1111122,1111122,1111122' 
DISL,ioos:station:DISL:MHPA:1,2008-01-04T11:30:00Z,30.6671,-87.9365,8.5,3.2,88.1,-9999.0,'1111122,1111122,1111122' 
DISL,ioos:station:DISL:MHPA:1,2008-01-04T12:00:00Z,30.6671,-87.9365,8.5,2.92,95.0,-9999.0,'1111122,1111122,1111122' 
DISL,ioos:station:DISL:MHPA:1,2008-01-04T12:30:00Z,30.6671,-87.9365,8.5,3.33,90.2,-9999.0,'1111122,1111122,1111122' 
DISL,ioos:station:DISL:MHPA:1,2008-01-04T13:00:00Z,30.6671,-87.9365,8.5,3.4,92.3,-9999.0,'1111122,1111122,1111122' 
DISL,ioos:station:DISL:MHPA:1,2008-01-04T13:30:00Z,30.6671,-87.9365,8.5,3.73,102.4,-9999.0,'1111122,1111122,1111122' 
DISL,ioos:station:DISL:MHPA:1,2008-01-04T14:00:00Z,30.6671,-87.9365,8.5,3.85,95.5,-9999.0,'1111122,1111122,1111122' 
DISL,ioos:station:DISL:MHPA:1,2008-01-04T14:30:00Z,30.6671,-87.9365,8.5,4.15,103.2,-9999.0,'1111122,1111122,1111122' 
DISL,ioos:station:DISL:MHPA:1,2008-01-04T15:00:00Z,30.6671,-87.9365,8.5,3.99,98.2,-9999.0,'1111122,1111122,1111122' 
DISL,ioos:station:DISL:MHPA:1,2008-01-04T15:30:00Z,30.6671,-87.9365,8.5,4.17,104.4,-9999.0,'1111122,1111122,1111122' 
DISL,ioos:station:DISL:MHPA:1,2008-01-04T16:00:00Z,30.6671,-87.9365,8.5,3.93,101.7,-9999.0,'1111122,1111122,1111122' 
DISL,ioos:station:DISL:MHPA:1,2008-01-04T16:30:00Z,30.6671,-87.9365,8.5,3.11,101.2,-9999.0,'1111122,1111122,1111122' 
DISL,ioos:station:DISL:MHPA:1,2008-01-04T17:00:00Z,30.6671,-87.9365,8.5,3.99,106.6,-9999.0,'1111122,1111122,1111122' 
DISL,ioos:station:DISL:MHPA:1,2008-01-04T17:30:00Z,30.6671,-87.9365,8.5,4.97,121.2,-9999.0,'1111122,1111122,1111122' 
DISL,ioos:station:DISL:MHPA:1,2008-01-04T18:00:00Z,30.6671,-87.9365,8.5,4.3,122.3,-9999.0,'1111122,1111122,1111122' 
DISL,ioos:station:DISL:MHPA:1,2008-01-04T18:30:00Z,30.6671,-87.9365,8.5,4.48,123.8,-9999.0,'1111122,1111122,1111122' 
DISL,ioos:station:DISL:MHPA:1,2008-01-04T19:00:00Z,30.6671,-87.9365,8.5,3.43,117.4,-9999.0,'1111122,1111122,1111122' 
DISL,ioos:station:DISL:MHPA:1,2008-01-04T19:30:00Z,30.6671,-87.9365,8.5,2.52,118.9,-9999.0,'1111122,1111122,1111122' 
DISL,ioos:station:DISL:MHPA:1,2008-01-04T20:00:00Z,30.6671,-87.9365,8.5,2.54,139.7,-9999.0,'1111122,1111122,1111122' 
DISL,ioos:station:DISL:MHPA:1,2008-01-04T20:30:00Z,30.6671,-87.9365,8.5,3.07,125.5,-9999.0,'1111122,1111122,1111122' 
DISL,ioos:station:DISL:MHPA:1,2008-01-04T21:00:00Z,30.6671,-87.9365,8.5,3.89,137.8,-9999.0,'1111122,1111122,1111122' 
DISL,ioos:station:DISL:MHPA:1,2008-01-04T21:30:00Z,30.6671,-87.9365,8.5,3.3,138.5,-9999.0,'1111122,1111122,1111122' 
DISL,ioos:station:DISL:MHPA:1,2008-01-04T22:00:00Z,30.6671,-87.9365,8.5,3.45,120.6,-9999.0,'1111122,1111122,1111122' 
DISL,ioos:station:DISL:MHPA:1,2008-01-04T22:30:00Z,30.6671,-87.9365,8.5,3.25,131.6,-9999.0,'1111122,1111122,1111122' 
DISL,ioos:station:DISL:MHPA:1,2008-01-04T23:00:00Z,30.6671,-87.9365,8.5,3.39,137.5,-9999.0,'1111122,1111122,1111122' 
DISL,ioos:station:DISL:MHPA:1,2008-01-04T23:30:00Z,30.6671,-87.9365,8.5,2.87,131.9,-9999.0,'1111122,1111122,1111122' 
DISL,ioos:station:DISL:MHPA:1,2008-01-05T00:00:00Z,30.6671,-87.9365,8.5,2.11,134.5,-9999.0,'1111122,1111122,1111122' 
DISL,ioos:station:DISL:MHPA:1,2008-01-05T00:30:00Z,30.6671,-87.9365,8.5,2.79,120.0,-9999.0,'1111122,1111122,1111122' 
DISL,ioos:station:DISL:MHPA:1,2008-01-05T01:00:00Z,30.6671,-87.9365,8.5,2.32,101.0,-9999.0,'1111122,1111122,1111122' 
DISL,ioos:station:DISL:MHPA:1,2008-01-05T01:30:00Z,30.6671,-87.9365,8.5,2.89,110.1,-9999.0,'1111122,1111122,1111122' 
DISL,ioos:station:DISL:MHPA:1,2008-01-05T02:00:00Z,30.6671,-87.9365,8.5,3.25,114.8,-9999.0,'1111122,1111122,1111122' 
DISL,ioos:station:DISL:MHPA:1,2008-01-05T02:30:00Z,30.6671,-87.9365,8.5,3.65,96.2,-9999.0,'1111122,1111122,1111122' 
DISL,ioos:station:DISL:MHPA:1,2008-01-05T03:00:00Z,30.6671,-87.9365,8.5,4.03,101.1,-9999.0,'1111122,1111122,1111122' 
DISL,ioos:station:DISL:MHPA:1,2008-01-05T03:30:00Z,30.6671,-87.9365,8.5,4.31,106.4,-9999.0,'1111122,1111122,1111122' 
DISL,ioos:station:DISL:MHPA:1,2008-01-05T04:00:00Z,30.6671,-87.9365,8.5,4.42,120.6,-9999.0,'1111122,1111122,1111122' 
DISL,ioos:station:DISL:MHPA:1,2008-01-05T04:30:00Z,30.6671,-87.9365,8.5,4.58,124.4,-9999.0,'1111122,1111122,1111122' 
DISL,ioos:station:DISL:MHPA:1,2008-01-05T05:00:00Z,30.6671,-87.9365,8.5,3.89,107.1,-9999.0,'1111122,1111122,1111122' 
DISL,ioos:station:DISL:MHPA:1,2008-01-05T05:30:00Z,30.6671,-87.9365,8.5,4.3,105.0,-9999.0,'1111122,1111122,1111122' 
DISL,ioos:station:DISL:MHPA:1,2008-01-05T06:00:00Z,30.6671,-87.9365,8.5,3.59,110.9,-9999.0,'1111122,1111122,1111122' 
DISL,ioos:station:DISL:MHPA:1,2008-01-05T06:30:00Z,30.6671,-87.9365,8.5,3.13,101.8,-9999.0,'1111122,1111122,1111122' 
DISL,ioos:station:DISL:MHPA:1,2008-01-05T07:00:00Z,30.6671,-87.9365,8.5,2.14,98.6,-9999.0,'1111122,1111122,1111122' 
DISL,ioos:station:DISL:MHPA:1,2008-01-05T07:30:00Z,30.6671,-87.9365,8.5,2.04,94.9,-9999.0,'1111122,1111122,1111122' 
DISL,ioos:station:DISL:MHPA:1,2008-01-05T08:00:00Z,30.6671,-87.9365,8.5,2.07,130.3,-9999.0,'1111122,1111122,1111122' 
DISL,ioos:station:DISL:MHPA:1,2008-01-05T08:30:00Z,30.6671,-87.9365,8.5,3.01,132.0,-9999.0,'1111122,1111122,1111122' 
DISL,ioos:station:DISL:MHPA:1,2008-01-05T09:00:00Z,30.6671,-87.9365,8.5,3.75,112.4,-9999.0,'1111122,1111122,1111122' 
DISL,ioos:station:DISL:MHPA:1,2008-01-05T09:30:00Z,30.6671,-87.9365,8.5,3.34,111.7,-9999.0,'1111122,1111122,1111122' 
DISL,ioos:station:DISL:MHPA:1,2008-01-05T10:00:00Z,30.6671,-87.9365,8.5,3.98,116.3,-9999.0,'1111122,1111122,1111122' 
DISL,ioos:station:DISL:MHPA:1,2008-01-05T10:30:00Z,30.6671,-87.9365,8.5,3.43,100.4,-9999.0,'1111122,1111122,1111122' 
DISL,ioos:station:DISL:MHPA:1,2008-01-05T11:00:00Z,30.6671,-87.9365,8.5,4.21,101.5,-9999.0,'1111122,1111122,1111122' 
DISL,ioos:station:DISL:MHPA:1,2008-01-05T11:30:00Z,30.6671,-87.9365,8.5,3.24,113.7,-9999.0,'1111122,1111122,1111122' 